Weather History for Dublin, Ireland

Change the Weather History Date:

Saturday, February 2, 2013

  Actual Average Record
Temperature  
Mean Temperature 36 °F -  
Max Temperature 43 °F 46 °F 55 °F (2004)
Min Temperature 30 °F 36 °F 21 °F (2012)
Degree Days  
Heating Degree Days 28    
Moisture  
Dew Point 31 °F    
Average Humidity 81    
Maximum Humidity 100    
Minimum Humidity 61    
Precipitation  
Precipitation 0.00 in 0.07 in - ()
Sea Level Pressure  
Sea Level Pressure 30.15 in    
Wind  
Wind Speed 9 mph ()    
Max Wind Speed 13 mph    
Max Gust Speed -    
Visibility 6.6 miles    
Events      
Averages and records for this station are not official NWS values.
T = Trace of Precipitation, MM = Missing Value Source: Averaged Metar Reports

Daily Weather History Graph

Daily Weather History Graph

Search for Another Location

Airport:

Trip Planner

Search our weather history database for the weather conditions in past years. The results will help you decide how hot, cold, wet, or windy it might be!

Date:

Astronomy

Feb. 02, 2013 Rise Set
Actual Time 8:08 AM GMT 5:10 PM GMT
Civil Twilight 7:30 AM GMT 5:48 PM GMT
Nautical Twilight 6:48 AM GMT 6:30 PM GMT
Astronomical Twilight 6:07 AM GMT 7:11 PM GMT
Moon 12:01 AM GMT (2/2) 10:05 AM GMT (2/2)
Length of Visible Light 10h 18m
Length of Day
9h 02m
Waning Gibbous, 62% of the Moon is Illuminated
Feb 2
Waning Gibbous
Feb 3
Last Quarter
Feb 10
New
Feb 17
First Quarter
Feb 25
Full

Hourly Weather History & Observations

Time (GMT) Temp. Windchill Dew Point Humidity Pressure Visibility Wind Dir Wind Speed Gust Speed Precip Events Conditions
12:00 AM 33 °F - 29 °F 82% 29.92 in 16 mi West 8.9 mph - -   Partly Cloudy
12:00 AM 33.8 °F 26.4 °F 30.2 °F 87% 29.89 in 6.2 mi West 9.2 mph - N/A   Partly Cloudy
12:30 AM 32.0 °F 23.0 °F 28.4 °F 87% 29.89 in 6.2 mi WNW 11.5 mph - N/A   Partly Cloudy
1:00 AM 32.0 °F 22.5 °F 30.2 °F 93% 29.92 in 6.2 mi WNW 12.7 mph - N/A   Partly Cloudy
1:30 AM 33.8 °F 25.3 °F 30.2 °F 87% 29.92 in 6.2 mi WNW 11.5 mph - N/A   Partly Cloudy
2:00 AM 33.8 °F 26.4 °F 30.2 °F 87% 29.95 in 6.2 mi WNW 9.2 mph - N/A   Partly Cloudy
2:30 AM 33.8 °F 25.8 °F 30.2 °F 87% 29.98 in 6.2 mi WNW 10.4 mph - N/A   Partly Cloudy
3:00 AM 33.8 °F 25.8 °F 30.2 °F 87% 29.98 in 6.2 mi WNW 10.4 mph - N/A   Partly Cloudy
3:30 AM 33.8 °F 25.8 °F 30.2 °F 87% 30.01 in 6.2 mi WNW 10.4 mph - N/A   Partly Cloudy
4:00 AM 32.0 °F 23.6 °F 30.2 °F 93% 30.01 in 6.2 mi WNW 10.4 mph - N/A   Partly Cloudy
4:30 AM 32.0 °F 24.2 °F 28.4 °F 87% 30.04 in 6.2 mi WNW 9.2 mph - N/A   Partly Cloudy
5:00 AM 33.8 °F 25.8 °F 30.2 °F 87% 30.04 in 6.2 mi WNW 10.4 mph - N/A   Partly Cloudy
5:30 AM 32.0 °F 23.0 °F 30.2 °F 93% 30.04 in 6.2 mi WNW 11.5 mph - N/A   Partly Cloudy
6:00 AM 31 °F - 29 °F 90% 30.09 in 16 mi West 8.9 mph - -   Scattered Clouds
6:00 AM 30.2 °F 21.9 °F 28.4 °F 93% 30.06 in 6.2 mi WNW 9.2 mph - N/A   Partly Cloudy
6:30 AM 30.2 °F 23.4 °F 30.2 °F 100% 30.06 in 6.2 mi West 6.9 mph - N/A   Partly Cloudy
7:00 AM 30.2 °F 21.9 °F 28.4 °F 93% 30.09 in 6.2 mi West 9.2 mph - N/A   Partly Cloudy
7:30 AM 30.2 °F 21.3 °F 28.4 °F 93% 30.12 in 6.2 mi WNW 10.4 mph - N/A   Partly Cloudy
8:00 AM 32.0 °F 23.6 °F 30.2 °F 93% 30.12 in 6.2 mi WNW 10.4 mph - N/A   Partly Cloudy
8:30 AM 32.0 °F 25.6 °F 30.2 °F 93% 30.15 in 6.2 mi West 6.9 mph - N/A   Partly Cloudy
9:00 AM 32.0 °F 24.8 °F 30.2 °F 93% 30.15 in 6.2 mi West 8.1 mph - N/A   Partly Cloudy
9:30 AM 33.8 °F 26.4 °F 32.0 °F 93% 30.18 in 6.2 mi West 9.2 mph - N/A   Partly Cloudy
10:00 AM 35.6 °F 29.2 °F 32.0 °F 87% 30.18 in 6.2 mi West 8.1 mph - N/A   Partly Cloudy
10:30 AM 37.4 °F 30.3 °F 32.0 °F 81% 30.21 in 6.2 mi WNW 10.4 mph - N/A   Scattered Clouds
11:00 AM 39.2 °F 33.0 °F 32.0 °F 75% 30.21 in 6.2 mi WNW 9.2 mph - N/A   Scattered Clouds
11:30 AM 39.2 °F 33.0 °F 33.8 °F 81% 30.21 in 6.2 mi NW 9.2 mph - N/A   Scattered Clouds
12:00 PM 41 °F - 33 °F 65% 30.25 in 25 mi NW 8.9 mph - -   Scattered Clouds
12:00 PM 41.0 °F 35.2 °F 33.8 °F 76% 30.21 in 6.2 mi NW 9.2 mph - N/A   Scattered Clouds
12:30 PM 41.0 °F 34.7 °F 33.8 °F 76% 30.21 in 6.2 mi NW 10.4 mph - N/A   Mostly Cloudy
1:00 PM 42.8 °F 37.0 °F 33.8 °F 70% 30.24 in 6.2 mi NW 10.4 mph - N/A   Mostly Cloudy
1:30 PM 42.8 °F 36.6 °F 32.0 °F 66% 30.24 in 6.2 mi WNW 11.5 mph - N/A   Mostly Cloudy
2:00 PM 42.8 °F 36.2 °F 32.0 °F 66% 30.24 in 6.2 mi WNW 12.7 mph - N/A   Mostly Cloudy
2:30 PM 42.8 °F 37.0 °F 32.0 °F 66% 30.24 in 6.2 mi WNW 10.4 mph - N/A   Mostly Cloudy
3:00 PM 42.8 °F 36.6 °F 30.2 °F 61% 30.24 in 6.2 mi NW 11.5 mph - N/A   Mostly Cloudy
3:30 PM 41.0 °F 35.8 °F 30.2 °F 65% 30.27 in 6.2 mi WNW 8.1 mph - N/A   Mostly Cloudy
4:00 PM 42.8 °F 37.5 °F 32.0 °F 66% 30.27 in 6.2 mi WNW 9.2 mph - N/A   Mostly Cloudy
4:30 PM 41.0 °F 35.8 °F 32.0 °F 70% 30.27 in 6.2 mi West 8.1 mph - N/A   Mostly Cloudy
5:00 PM 39.2 °F 35.0 °F 30.2 °F 70% 30.27 in 6.2 mi West 5.8 mph - N/A   Mostly Cloudy
5:30 PM 35.6 °F 30.7 °F 30.2 °F 81% 30.27 in 6.2 mi West 5.8 mph - N/A   Mostly Cloudy
6:00 PM 34 °F - 29 °F 77% 30.29 in 25 mi West 6.7 mph - -   Scattered Clouds
6:00 PM 35.6 °F 30.7 °F 30.2 °F 81% 30.27 in 6.2 mi West 5.8 mph - N/A   Mostly Cloudy
6:30 PM 35.6 °F 31.7 °F 30.2 °F 81% 30.27 in 6.2 mi SSW 4.6 mph - N/A   Mostly Cloudy
7:00 PM 35.6 °F 30.7 °F 30.2 °F 81% 30.27 in 6.2 mi SW 5.8 mph - N/A   Mostly Cloudy
7:30 PM 37.4 °F 32.1 °F 30.2 °F 75% 30.24 in 6.2 mi WSW 6.9 mph - N/A   Mostly Cloudy
8:00 PM 37.4 °F 33.8 °F 30.2 °F 75% 30.24 in 6.2 mi SW 4.6 mph - N/A   Mostly Cloudy
8:30 PM 35.6 °F 29.2 °F 28.4 °F 75% 30.24 in 6.2 mi SW 8.1 mph - N/A   Partly Cloudy
9:00 PM 37.4 °F 32.1 °F 30.2 °F 75% 30.21 in 6.2 mi SSW 6.9 mph - N/A   Partly Cloudy
9:30 PM 35.6 °F 29.9 °F 30.2 °F 81% 30.21 in 6.2 mi SSW 6.9 mph - N/A   Mostly Cloudy
10:00 PM 37.4 °F 32.1 °F 30.2 °F 75% 30.21 in 6.2 mi SW 6.9 mph - N/A   Mostly Cloudy
10:30 PM 39.2 °F 33.6 °F 32.0 °F 75% 30.18 in 6.2 mi SSW 8.1 mph - N/A   Mostly Cloudy
11:30 PM 41.0 °F 33.9 °F 33.8 °F 76% 30.18 in 6.2 mi SW 12.7 mph - N/A   Mostly Cloudy